Regional Weather Roundup
Issued by NWS Cleveland, OH

Home | Current Version | Previous Version | Text Only | Print | Product List | Glossary Off
Versions: 1 2 3 4 5 6 7 8 9 10 11 12 13 14 15 16 17 18 19 20 21 22 23 24 25 26 27 28 29 30 31 32 33 34 35 36 37 38 39 40 41 42 43 44 45 46 47 48 49 50

000
ASUS41 KCLE 242210
RWRCLE
OHIO REGIONAL WEATHER ROUNDUP
NATIONAL WEATHER SERVICE WILMINGTON, OH
600 PM EDT SUN SEP 24 2017

NOTE: "FAIR" INDICATES FEW OR NO CLOUDS BELOW 12,000 FEET WITH NO
SIGNIFICANT WEATHER AND/OR OBSTRUCTIONS TO VISIBILITY.

OHZ001>008-015>018-024>027-034-035-043-044-242300-
   NORTHWEST OHIO

CITY           SKY/WX    TMP DP  RH WIND       PRES   REMARKS
DEFIANCE       FAIR      89  56  32 SE6       30.05F
FINDLAY        FAIR      89  58  34 E7        30.05S
TOLEDO EXPRESS FAIR      87  64  46 NE10      30.07R
TOLEDO EXEC    FAIR      84  65  52 E7        30.08S
LIMA           FAIR      88  55  32 S9        30.07S
$$

OHZ009>014-019>023-028>033-038-089-242300-
   NORTHEAST OHIO

CITY           SKY/WX    TMP DP  RH WIND       PRES   REMARKS
CLE-HOPKINS    FAIR      84  64  50 NE16      30.10S
CLE-LAKEFRONT  FAIR      78  67  68 NE12      30.07S
CUY CO. ARPT   MOSUNNY   86  64  48 NE10      30.10S
LORAIN-ELYRIA  FAIR      83  62  49 NE10      30.09S
ASHTABULA      FAIR      83  66  56 NE7       30.11S
AKRON-CANTON   FAIR      89  59  36 E8        30.09F
WOOSTER        FAIR      87  59  38 SE6       30.09S
MANSFIELD      FAIR      87  61  41 E6        30.10S
YOUNGSTOWN     FAIR      89  62  40 E8        30.10S
$$

OHZ042-051>053-060>062-070>072-077>081-242300-
  SOUTHWEST OHIO

CITY           SKY/WX    TMP DP  RH WIND       PRES   REMARKS
CINC-COVINGTON FAIR      87  54  32 SE10      30.05S
CINC-LUNKEN    FAIR      89  52  28 SE6       30.04S
HAMILTON       FAIR      89  54  30 E3        30.05S
DAYTON         FAIR      86  53  32 SE10      30.07S
WRIGHT-PAT AFB FAIR      89  51  27 SE9       30.05S
DAYTON GENERAL FAIR      86  52  30 E6        30.06S
WILMINGTON     FAIR      85  55  35 SE6       30.07S
$$

OHZ036-037-039>041-045>050-054>059-063>069-073>076-082>088-242300-
  CENTRAL AND SOUTHEAST OHIO

CITY           SKY/WX    TMP DP  RH WIND       PRES   REMARKS
COLUMBUS       FAIR      88  60  38 SE6       30.06S
OSU AIRPORT    FAIR      86  63  45 E6        30.07R
BOLTON FIELD   SUNNY     88  61  40 S6G16     30.07S
RICKENBACK AFB FAIR      87  59  39 SE5       30.06R
NEWARK         FAIR      89  58  34 SE5       30.07R
MARION         FAIR      88  58  36 SE8       30.08S
LANCASTER      FAIR      85  63  47 E6        30.07S
ZANESVILLE     FAIR      89  59  36 E6        30.07R
NEW PHILLY     FAIR      90  59  35 E6        30.08S
$$



USA.gov is the U.S. government's official web portal to all federal, state and local government web resources and services.